Flag for U.S.A. Weather past 2 weeks in Fort Wayne, Indiana, U.S.A.

Now
50 °F

Passing clouds.


Feels Like: 43 °F
Forecast: 40 / 56 °F
Wind: 21 mph from West

Location: Fort Wayne International Airport

Current Time: Apr 21, 2015 at 11:29:07 AM

Latest Report: Apr 21, 2015 at 10:54 AM


Visibility: 10 mi

Pressure: 29.68 "Hg

Humidity: 54%

Dew point: 34 °F

Location of Fort WayneLocation

Historic Weather in Fort Wayne — Graph

°F

Fort Wayne temperature yesterday

Maximum temperature yesterday: 62 °F (at 12:54 AM)
Minimum temperature yesterday: 45 °F (at 11:54 PM)
Average temperature yesterday: 53 °F

Past Weeks' High & Low Weather Summary

 TemperatureHumidityPressure
High78 °F (Apr 18, 2:54 PM)100% (Apr 7, 4:54 AM)30.31 "Hg (Apr 7, 4:54 AM)
Low33 °F (Apr 11, 6:54 AM)27% (Apr 15, 12:54 PM)29.28 "Hg (Apr 20, 12:54 AM)
Average54 °F69%29.99 "Hg
* Reported Apr 6 9:54 AM — Apr 21 9:54 AM, Fort Wayne, Weather by CustomWeather, © 2015

Note: Actual official high and low records may vary slightly from our data, if they occured in-between our weather recording intervals... More about our weather records

Advertising

Fort Wayne weather history for previous 24 hours

 ConditionsComfort  
Time TempWeatherWind HumidityBarometerVisibility
9:54 AM
Tue, Apr 21
48 °FPassing clouds.18 mph59%29.69 "Hg10 mi
8:54 AM45 °FPassing clouds.17 mph68%29.69 "Hg10 mi
7:54 AM42 °FPassing clouds.16 mph73%29.68 "Hg10 mi
6:54 AM41 °FPassing clouds.15 mph76%29.68 "Hg10 mi
5:54 AM40 °FPassing clouds.16 mph83%29.67 "Hg10 mi
4:54 AM38 °FPassing clouds.9 mph86%29.67 "Hg10 mi
3:54 AM41 °FPassing clouds.13 mph80%29.69 "Hg10 mi
2:54 AM42 °FPassing clouds.13 mph76%29.69 "Hg10 mi
1:54 AM43 °FPassing clouds.13 mph76%29.69 "Hg10 mi
12:54 AM44 °FMostly cloudy.13 mph71%29.69 "Hg10 mi
11:54 PM
Mon, Apr 20
45 °FLight rain. Mostly cloudy.16 mph68%29.68 "Hg10 mi
10:54 PM46 °FOvercast.17 mph66%29.67 "Hg10 mi
9:54 PM46 °FPassing clouds.20 mph63%29.66 "Hg10 mi
8:54 PM47 °FOvercast.20 mph69%29.63 "Hg10 mi
7:54 PM48 °FMore clouds than sun.16 mph66%29.60 "Hg10 mi
6:54 PM50 °FScattered clouds.23 mph63%29.57 "Hg10 mi
5:54 PM49 °FMostly cloudy.23 mph77%29.56 "Hg10 mi
4:54 PM49 °FOvercast.25 mph77%29.54 "Hg10 mi
3:54 PM49 °FLight rain. Mostly cloudy.22 mph86%29.51 "Hg10 mi
2:54 PM51 °FCloudy.29 mph77%29.48 "Hg10 mi
1:54 PM51 °FMostly cloudy.24 mph83%29.45 "Hg10 mi
12:54 PM52 °FMostly cloudy.28 mph83%29.42 "Hg10 mi
11:54 AM54 °FMostly cloudy.24 mph80%29.39 "Hg10 mi
Weather by CustomWeather, © 2015

See weather overviewHow to use our weather pages